sat.trackr.live / text

‹ back to catalog

INMARSAT 5-F2

NORAD 40384 · 2015-005A

PAYLOAD ACTIVE UNKNOWN

§ Identity

Operator
Country
IM
Launch date
2015-02-01
Launch site
TYMSC
Launch vehicle
Mass (kg)
RCS (m²)
16.57

Purposes: comms

External: N2YO · Heavens-Above · Gunter

§ Orbital elements

Epoch: 2026-09-14T22:05:41.055648Z

Period
1,436.09 min
Inclination
0.0194°
Eccentricity
0.0000727
Mean motion
1.00272396 rev/d
Perigee alt
35,783.4 km
Apogee alt
35,789.5 km
Semi-major
42,164.6 km
B*
0.0000e+0
RAAN
153.1238°
Arg perigee
5.6259°
Mean anomaly
111.5533°
Rev number
4,189

§ Raw data

INMARSAT 5-F21 40384U 15005A   26257.92061407 -.00000292  00000+0  00000+0 0  99932 40384   0.0194 153.1238 0000727   5.6259 111.5533  1.00272396 41892

JSON: /api/v1/satellites/40384 · /tle

For live sub-satellite position, see the globe view (requires WebGL).

§ Visibility from observer

Set your observer location to see the next 7 days of passes ≥ 10°. The values pass through the URL so the page stays shareable.

No JS? Fill the form by hand. The geolocation button needs JavaScript.